Location: Gugi
(45.4667°N, 11.1000°E)
Time: 20:41:33
(UTC+00:00)

Meteor 2-20 - Pass Details

Date: 17 November 2019
Orbit: 940 x 958 km, 82.5° (Epoch: 08 December)

Event Time Altitude Azimuth Distance (km) Brightness Sun altitude
Rises 16:32:17 0° 181° (S) 3,605 7.7 -8.7°
Reaches altitude 10° 16:34:45 10° 180° (S) 2,667 7.0 -9.1°
Maximum altitude 16:40:51 76° 96° (E) 985 4.4 -10.1°
Drops below altitude 10° 16:47:00 10° 12° (NNE) 2,696 6.6 -11.1°
Sets 16:49:31 0° 11° (N) 3,648 7.2 -11.6°
